Location: Unspecified
(52.4292°N, 19.3359°E)
Time: 00:55:37
(UTC+02:00)

SR - Pass Details

Date: 04 June 2024
Orbit: 580 x 858 km, 66.7° (Epoch: 12 June)

Event Time Altitude Azimuth Distance (km) Brightness Sun altitude
Rises 18:02:41 0° 271° (W) 3,071 ? 23.4°
Reaches altitude 10° 18:05:40 10° 288° (WNW) 2,101 ? 23.0°
Maximum altitude 18:09:07 20° 335° (NNW) 1,504 ? 22.5°
Drops below altitude 10° 18:12:26 10° 23° (NNE) 1,996 ? 22.0°
Sets 18:15:11 0° 41° (NE) 2,866 ? 21.6°
